Regional Weather Roundup
Issued by NWS

Home | Current Version | Previous Version | Graphics & Text | Print | Product List | Glossary On
Versions: 1 2 3 4 5 6 7 8 9 10 11 12 13 14 15 16 17 18 19 20 21 22 23 24 25 26 27 28
000
ASUS45 KTFX 242310
RWRMT
MONTANA REGIONAL WEATHER ROUNDUP
NATIONAL WEATHER SERVICE GREAT FALLS MT
500 PM MDT TUE MAY 24 2016

NOTE: "FAIR" INDICATES FEW OR NO CLOUDS BELOW 12000 FEET WITH NO
SIGNIFICANT WEATHER AND/OR OBSTRUCTIONS TO VISIBILITY.

MTZ001>007-043-250000-
WEST OF THE DIVIDE

CITY           SKY/WX    TMP DP  RH WIND       PRES   REMARKS
KALISPELL      MOSUNNY   60  40  47 VRB3      29.90S
MISSOULA       PTSUNNY   59  41  51 N9        29.92S
BUTTE          CLOUDY    52  34  50 NW9       29.91S
MULLAN PASS    PTSUNNY   40  40 100 VRB5      29.96R
ANACONDA         N/A     50  41  71 N10       29.91R
DEER LODGE       N/A     48  43  81 CALM      29.93S
EUREKA           N/A     63  37  39 SW7       29.88S
HAMILTON         N/A     55  43  62 N14       29.89F
LIBBY            N/A     64  37  36 NE7       29.88S
PLAINS           N/A     61  45  55 CALM      29.93S
$$

MTZ008-052>055-250000-
SOUTHWEST MONTANA

CITY           SKY/WX    TMP DP  RH WIND       PRES   REMARKS
BOZEMAN        MOSUNNY   58  39  49 CALM      29.89F
DILLON         CLOUDY    55  34  45 NE3       29.87F
ENNIS          PTSUNNY   57  37  47 VRB6      29.93F
TWIN BRIDGES     N/A     58  33  38 NE2       29.88F
$$

MTZ009-010-012-014-046-048-049-054-250000-
EAST SLOPES AND CENTRAL MONTANA

CITY           SKY/WX    TMP DP  RH WIND       PRES   REMARKS
CUT BANK       PTSUNNY   56  39  53 NW6       29.87S
GREAT FALLS    PTSUNNY   61  34  36 N7        29.87S
MALMSTROM AFB  MOSUNNY   58  37  45 N7        29.88S
HELENA         CLOUDY    59  40  49 N6        29.88S
CHOTEAU          N/A     59  39  47 VRB7      29.89S
CONRAD           N/A     59  41  51 W3        29.91F
$$

MTZ011-013-016-021-045-047-050-051-250000-
NORTH CENTRAL MONTANA

CITY           SKY/WX    TMP DP  RH WIND       PRES   REMARKS
HAVRE          MOSUNNY   58  42  55 SW5       29.87F
LEWISTOWN      CLOUDY    55  41  59 CALM      29.90S
N BAR RANCH    CLOUDY    48  45  87 VRB8      29.94R
CHINOOK          N/A     61  43  51 W10       29.87F
$$

MTZ017>020-022>027-061-062-250000-
NORTHEAST MONTANA

CITY           SKY/WX    TMP DP  RH WIND       PRES   REMARKS
GLASGOW        PTSUNNY   62  42  47 NW8       29.86F
JORDAN           N/A     62  39  42 W5        29.88S
SIDNEY         SUNNY     68  39  34 SW12      29.86F
WOLF POINT     CLOUDY    68  41  37 W12       29.87S
PLENTYWOOD       N/A     64  39  39 SW10      29.87S
POPLAR           N/A     66  39  37 W7        29.87S
SCOBEY           N/A     62  36  38 SW18      29.87S
$$

MTZ028>42-056>058-250000-
SOUTHCENTRAL AND SOUTHEAST MONTANA

CITY           SKY/WX    TMP DP  RH WIND       PRES   REMARKS
BAKER          MOSUNNY   71  38  29 E7        29.84F
BILLINGS       LGT RAIN  61  41  47 NW8       29.88S
LIVINGSTON     CLOUDY    59  36  42 CALM      29.87S
MILES CITY     MOSUNNY   71  41  33 NE8       29.84F
FORSYTH          N/A     66  43  42 N5        29.84F
ROUNDUP          N/A     57  43  59 N9        29.81R
$$

REGIONAL REPORTS...DAKOTAS

CITY           SKY/WX    TMP DP  RH WIND       PRES   REMARKS
WILLISTON      PTSUNNY   70  37  29 SW13      29.87S
MINOT          MOSUNNY   78  39  24 SW9       29.86F
DICKINSON      CLOUDY    67  40  37 VRB3      29.85F
BEACH            N/A     70  36  28 CALM      29.89F
CROSBY           N/A     68  36  30 SW15G24   29.88S
WATFORD CITY     N/A     68  37  32 W10G18    29.88S
BISMARCK       MOSUNNY   77  40  26 SE7       29.86F
GRAND FORKS    MOSUNNY   79  51  37 NE3       29.86S
FARGO          SUNNY     84  40  21 NW6       29.84S
BUFFALO SD       N/A     73  41  31 SE15      29.76F
RAPID CITY     CLOUDY    66  45  46 E7        29.83F
$$

REGIONAL REPORTS...WYOMING/IDAHO/WASHINGTON

CITY           SKY/WX    TMP DP  RH WIND       PRES   REMARKS
GILLETTE       CLOUDY    70  34  26 E6        29.79F
SHERIDAN       CLOUDY    69  39  33 VRB7      29.80F
BUFFALO WY     CLOUDY    58  39  49 W17       29.85F
CODY           CLOUDY    54  43  66 N8        29.87F
YELLOWSTONE LA   N/A     44  33  65 MISG      29.97R
IDAHO FALLS    CLOUDY    62  36  37 W8        29.82F
SALMON         MOSUNNY   57  36  44 N6        29.85F
BOISE          MOSUNNY   72  30  21 NW10G20   29.81F
SPOKANE        MOSUNNY   64  47  53 CALM      29.90F
$$

REGIONAL REPORTS...ALBERTA

CITY           SKY/WX    TMP DP  RH WIND       PRES   REMARKS
EDMONTON       MOSUNNY   63  45  51 SE16      29.83F
CALGARY        MOSUNNY   61  39  44 S7        29.84F
LETHBRIDGE     MOSUNNY   59  43  55 VRB6      29.86F
MEDICINE HAT   LGT RAIN  54  46  76 CALM      29.87S
WATERTON GATE    N/A     59  37  44 SW9         N/A
MILK RIVER       N/A     57  41  54 N3          N/A
ONEFOUR          N/A     57  39  51 NW8         N/A
$$

REGIONAL REPORTS...SASKATCHEWAN

CITY           SKY/WX    TMP DP  RH WIND       PRES   REMARKS
SWIFT CURRENT  CLOUDY    55  48  76 W10       29.81S
REGINA         PTSUNNY   61  41  48 SW15      29.82F
SASKATOON      PTSUNNY   57  48  72 NE16G22   29.86S
VAL MARIE        N/A     57  48  72 SW9         N/A
ROCKGLEN         N/A     55  45  67 SW16        N/A
ASSINIBOIA       N/A     61  46  59 E8          N/A
$$




USA.gov is the U.S. government's official web portal to all federal, state and local government web resources and services.